This is the latest recevied weather packets stored in our database for station/object K4ROM-1. If no packets are shown the sender has not sent any weather packets the latest 10 day(s).
| Time | Temp. | Humidity | Pressure | Rain* | Wind** | Luminosity | Snow |
|---|---|---|---|---|---|---|---|
| 1778053203 | 17.22° C | 77% | 1015.3 hPa | 0 mm | 0.45 m/s, 228° | - | - |
| 1778052603 | 17.22° C | 77% | 1015.2 hPa | 0 mm | 0.45 m/s, 240° | - | - |
| 1778052003 | 17.22° C | 77% | 1014.9 hPa | 0 mm | 0 m/s | - | - |
| 1778051403 | 17.22° C | 77% | 1015.4 hPa | 0 mm | 0.45 m/s, 138° | - | - |
| 1778050803 | 17.22° C | 77% | 1015.2 hPa | 0 mm | 0.45 m/s, 220° | - | - |
| 1778050203 | 17.22° C | 76% | 1015.6 hPa | 0 mm | 0.45 m/s, 178° | - | - |
| 1778049603 | 17.22° C | 76% | 1015.7 hPa | 0 mm | 0.45 m/s, 261° | - | - |
| 1778049003 | 17.22° C | 76% | 1015.5 hPa | 0 mm | 0.89 m/s, 278° | - | - |
| 1778048403 | 17.22° C | 76% | 1015.6 hPa | 0 mm | 0.45 m/s, 44° | - | - |
| 1778047803 | 17.78° C | 76% | 1015.4 hPa | 0 mm | 0 m/s | - | - |
| 1778047203 | 17.78° C | 75% | 1015.7 hPa | 0 mm | 0 m/s | - | - |
| 1778046603 | 17.78° C | 76% | 1015.6 hPa | 0 mm | 0.89 m/s, 279° | - | - |
| 1778046003 | 17.78° C | 76% | 1015.6 hPa | 0 mm | 0.45 m/s, 227° | - | - |
| 1778045403 | 17.78° C | 76% | 1016.2 hPa | 0 mm | 0.45 m/s, 200° | - | - |
| 1778044803 | 17.78° C | 75% | 1015.9 hPa | 0 mm | 0.45 m/s, 280° | - | - |
| 1778044204 | 17.78° C | 75% | 1015.8 hPa | 0 mm | 0.45 m/s, 227° | - | - |
| 1778043603 | 18.33° C | 74% | 1016 hPa | 0 mm | 0 m/s | - | - |
| 1778043003 | 18.33° C | 73% | 1016 hPa | 0 mm | 0.45 m/s, 278° | - | - |
| 1778042403 | 18.33° C | 72% | 1016.1 hPa | 0 mm | 0.89 m/s, 234° | - | - |
| 1778041803 | 18.33° C | 71% | 1016 hPa | 0 mm | 0.89 m/s, 199° | - | - |
| 1778041203 | 18.89° C | 70% | 1016 hPa | 0 mm | 0.45 m/s, 239° | - | - |
| 1778040604 | 18.89° C | 69% | 1016.2 hPa | 0 mm | 0 m/s | - | - |
| 1778040003 | 18.89° C | 68% | 1015.9 hPa | 0 mm | 0.89 m/s, 196° | - | - |
| 1778039403 | 18.89° C | 67% | 1016 hPa | 0 mm | 0.89 m/s, 142° | - | - |
| 1778038803 | 19.44° C | 66% | 1015.6 hPa | 0 mm | 0.45 m/s, 110° | - | - |
* Rain latest hour (hover to see other rain measurements)
** Current wind speed in m/s (hover to see current wind gust speed)